CAPE
822 571 579 575 690 701 785 790 882 987 981 960 1026 1024 974 917 841 743 664 632 608 642
993 987 959 853 739 1017 810 709 362 5 497 378 1042 1009 958 973 945 903 809 819 643 639
0 0 0 60 252 411 439 442 681 797 944 1061 1057 367 1011 1055 1074 1010 882 836 816 835
0 0 0 0 0 1 100 199 210 228 247 504 1003 1189 1188 1329 1043 1007 1078 1014 1056 956
0 0 0 0 0 0 0 0 21 88 197 244 281 752 939 1045 1190 1121 1110 1065 1050 978
0 0 0 0 0 0 0 0 0 0 19 133 359 493 461 695 792 919 1069 1153 1080 1176
0 0 0 0 0 0 0 0 0 0 0 0 21 191 507 555 463 605 879 885 957 1201
0 0 0 0 0 0 0 0 0 0 0 0 0 9 50 208 611 776 636 603 664 873
0 0 0 0 0 0 0 0 0 0 0 0 0 0 0 0 145 273 342 427 552 615
0 0 0 0 0 0 0 0 0 0 0 0 0 0 0 0 0 68 268 442 369 267
0 0 0 0 0 0 0 0 0 0 0 0 0 0 0 0 0 0 14 72 93 222
0 0 0 0 0 0 0 0 0 1 0 0 0 0 0 0 0 0 0 0 64 295
0 0 0 0 0 0 0 0 0 1 0 0 0 0 0 0 0 0 1 41 167 319
0 0 0 0 0 0 0 0 0 0 0 1 1 0 0 0 2 15 34 135 285 474
CIN
-163 -176 -187 -176 -120 -115 -110 -105 -91 -67 -74 -77 -68 -66 -65 -58 -58 -64 -59 -50 -46 -39
-99 -75 -90 -88 -88 -51 -95 -114 -80 -50 -117 -122 -78 -111 -98 -72 -61 -69 -57 -50 -56 -40
-0 -0 -0 -135 -142 -76 -92 -114 -60 -65 -59 -70 -88 -198 -91 -50 -60 -67 -62 -57 -54 -49
-0 -0 -0 -0 -0 -17 -184 -139 -158 -154 -167 -135 -89 -77 -41 -29 -62 -48 -48 -53 -48 -45
-0 -0 -0 -0 -0 -0 -0 -0 -245 -146 -113 -125 -138 -84 -71 -51 -32 -45 -45 -46 -47 -56
-0 -0 -0 -0 -0 -0 -0 -0 -0 -0 -258 -151 -75 -69 -84 -64 -52 -53 -45 -32 -39 -45
-0 -0 -0 -0 -0 -0 -0 -0 -0 -0 -0 -0 -90 -83 -25 -36 -66 -50 -37 -50 -50 -34
-0 -0 -0 -0 -0 -0 -0 -0 -0 -0 -0 -0 -0 -85 -103 -73 -5 -15 -26 -40 -43 -34
-0 -0 -0 -0 -0 -0 -0 -0 -0 -0 -0 -0 -0 -0 -0 -0 -80 -33 -23 -31 -24 -27
-0 -0 -0 -0 -0 -0 -0 -0 -0 -0 -0 -0 -0 -0 -0 -0 -0 -140 -20 -13 -28 -50
-0 -0 -0 -0 -0 -0 -0 -0 -0 -0 -0 -0 -0 -0 -0 -0 -0 -0 -89 -127 -75 -41
-0 -0 -3 -0 -0 -0 -0 -0 -0 -0 -0 -0 -0 -0 -0 -0 -0 -0 -0 -0 -133 -50
-0 -0 -0 -0 -0 -0 -0 -0 -0 -0 -0 -0 -0 -0 -0 -0 -2 -81 -24 -217 -109 -75
-0 -0 -0 -0 -0 -0 -0 -0 -0 -0 -0 -0 -0 -0 -0 -0 -71 -104 -294 -139 -71 -30
Wind_Speed
19 26 30 29 30 32 31 32 35 36 33 29 23 15 4 4 5 8 8 7 7 11
29 25 24 26 28 28 27 13 6 20 8 26 20 17 7 7 6 9 9 9 11 12
22 24 24 25 26 25 24 21 12 12 13 10 12 11 9 13 11 12 13 13 12 13
25 26 27 27 29 29 26 24 24 26 26 22 13 11 11 13 15 11 17 15 12 12
26 28 29 30 30 29 28 26 25 23 23 24 23 20 18 16 22 20 19 16 21 20
26 28 29 30 31 31 30 30 30 29 28 27 25 24 22 23 26 28 27 27 24 28
28 29 29 30 30 31 30 29 30 30 29 28 27 25 24 24 26 27 28 30 30 31
29 30 31 32 32 32 31 30 30 29 29 28 28 26 28 28 28 28 30 30 30 30
30 30 31 32 32 31 31 31 30 31 31 30 28 28 30 30 29 29 28 30 30 29
31 31 32 32 32 31 31 31 30 32 32 33 31 30 29 30 29 29 28 28 30 29
33 33 34 33 32 32 33 32 32 32 32 32 32 31 31 31 30 29 29 28 29 30
33 33 34 34 34 34 34 33 32 31 32 33 33 32 33 32 30 30 30 29 28 27
32 32 33 33 34 35 33 33 32 32 30 31 32 32 33 31 30 30 29 29 27 26
31 31 31 32 32 33 33 32 33 32 31 30 31 32 31 29 28 27 28 28 28 23
Wind_Direction
238 252 265 264 263 266 295 293 286 281 290 298 308 318 251 231 281 299 300 301 301 311
298 312 321 323 320 315 319 336 201 228 302 298 310 308 289 290 256 306 297 288 297 303
331 329 328 327 326 328 329 333 336 322 311 290 297 234 236 297 290 298 300 297 294 301
327 325 325 326 325 325 327 328 324 317 318 322 312 286 282 291 297 294 302 298 292 295
329 325 324 324 325 328 329 329 329 328 324 320 318 313 305 294 298 298 297 294 297 298
339 334 330 327 326 325 325 323 322 321 320 320 318 315 311 306 300 296 297 295 295 295
339 336 334 333 330 328 328 327 324 322 320 318 317 316 314 308 302 298 295 293 295 294
340 338 336 333 330 328 327 326 325 324 322 320 318 316 311 308 305 300 296 294 295 294
344 342 339 338 337 336 332 328 326 322 319 316 316 314 310 308 306 302 300 297 297 296
341 340 341 343 341 341 338 336 332 324 318 313 312 311 309 308 306 303 301 299 297 298
336 336 338 340 341 340 340 339 336 331 324 318 312 308 306 304 303 302 299 299 299 296
337 338 338 338 339 338 340 339 340 338 331 325 318 313 302 301 302 300 298 299 300 299
339 340 339 340 340 339 342 340 340 340 339 333 325 318 308 298 299 299 298 298 299 300
340 341 342 342 343 344 344 343 341 341 342 338 332 324 316 306 300 299 298 298 298 304